User: anonymous   Login
Location: Caltech
(34.1382°N, 118.1253°W)
Time: 18:55:35
(UTC-08:00)
Language:

IDEFIX/ARIANE 42P - Orbit

View from above orbital plane
View from above orbital plane
View from above satellite
View from above satellite

Ground track
Ground track

The orbit data is extracted from the following two-line orbital elements,

1 27422U 02021B   14329.70407881  .00000115  00000-0  61354-4 0  6500
2 27422 098.2816 004.3569 0013544 124.6284 344.3403 14.29091750653209
Epoch (UTC): 25 November 2014 16:53:52
Eccentricity: 0.0013544
inclination: 98.2816°
perigee height: 785 km
apogee height: 804 km
right ascension of ascending node: 4.3569°
argument of perigee: 124.6284°
revolutions per day: 14.29091750
mean anomaly at epoch: 344.3403°
orbit number at epoch: 65320

The dashed part of the orbit path shows where the satellite is in the earth's shadow,  

DLR